Location: La Maisonbrot
(46.3175°N, 1.5458°E)
Time: 14:50:49
(UTC+00:00)

Daily predictions for brighter satellites

Satellite Brightness Start Highest point End
(mag) Time Altitude Azimuth Time Altitude Azimuth Time Altitude Azimuth
ADEOS Rocket 3.3 18:48:08 10° NNE 18:54:40 76° WNW 19:00:30 10° SSW
STARLINK-1128 4.5 18:51:17 10° WNW 18:55:16 47° SW 18:59:14 10° SE
SL-16 R/B 3.1 18:50:18 10° SW 18:55:52 57° WNW 19:01:28 10° NNE
CZ-2C R/B 4.1 18:55:07 10° NE 18:58:08 15° E 19:01:08 10° SE
NOSS 3-3 (A) 4.0 18:54:47 10° SSW 19:00:29 59° ESE 19:06:53 10° NE
NOSS 3-3 (C) 4.0 18:54:53 10° SSW 19:00:35 59° ESE 19:06:59 10° NE
Cosmos 2251 Rocket 3.6 18:56:21 10° S 19:01:36 60° ESE 19:06:55 10° NNE
Cosmos 1726 2.9 18:58:43 10° SSE 19:02:00 30° E 19:05:18 10° NNE
ARGOS 3.4 18:59:12 10° SE 19:04:23 51° ENE 19:09:36 10° N
MONITOR-E 4.5 19:03:40 10° SE 19:06:07 34° ENE 19:08:35 10° N
YAOGAN 1 4.3 19:02:11 10° SSW 19:06:11 36° W 19:10:13 10° NNW
Cosmos 2184 Rocket 4.3 19:00:15 10° N 19:06:18 46° ENE 19:12:15 10° SSE
ISS -2.7 19:03:13 10° WNW 19:06:25 40° SW 19:09:36 10° SE
SJ-6B 3.4 19:04:00 10° SE 19:07:51 40° ENE 19:11:45 10° N
BREEZE M DEB (TANK) 4.3 19:08:44 10° SE 19:10:02 11° ESE 19:11:42 10° E
Meteor 2-10 4.4 19:05:37 10° SSE 19:10:47 47° E 19:16:10 10° NNE
Cosmos 1626 Rocket 4.0 19:07:54 10° NNW 19:12:15 65° W 19:16:32 10° S
STARLINK-67 4.4 19:10:14 10° NW 19:12:19 21° NNE 19:14:23 10° ENE
USA 186 1.9 19:09:31 10° SSE 19:12:48 55° ENE 19:15:59 10° N
Cosmos 1603 3.6 19:12:53 10° SSW 19:18:27 69° ESE 19:24:03 10° NNE
IRIDIUM 104 4.3 19:14:17 10° N 19:19:29 63° E 19:24:38 10° SSE
FREGAT/IRIS 2.2 19:16:59 10° SSE 19:19:40 70° ENE 19:22:24 10° N
Cosmos 2058 Rocket 4.4 19:17:06 10° SE 19:20:24 20° E 19:23:42 10° NE
Ariane Rocket 3.1 19:16:28 10° SSE 19:21:32 85° WSW 19:26:38 10° NNW
Cosmos 1758 4.1 19:17:52 10° SSW 19:21:54 57° WNW 19:25:57 10° N
Cosmos 1602 Rocket 4.1 19:18:30 10° NNW 19:22:55 65° W 19:27:16 10° S
MOS 1 Rocket 4.5 19:18:49 10° NE 19:23:25 28° E 19:28:03 10° SSE
ATLAS 2AS CENTAUR R/B 3.2 19:16:18 10° NW 19:23:50 54° NE 19:29:59 14° ESE
Resurs 01 Rocket 2.8 19:21:42 13° ESE 19:24:40 25° ENE 19:28:15 10° N
Meteor 1-21 Rocket 4.2 19:19:48 10° N 19:25:23 90° SE 19:30:55 10° S
USA 234 4.1 19:20:23 10° ENE 19:25:47 27° SE 19:31:08 10° S
MOS 1 4.3 19:20:19 10° SSE 19:25:57 81° ENE 19:31:39 10° NNW
Meteor 1-16 Rocket 4.2 19:22:55 10° S 19:28:09 56° E 19:33:35 10° NNE
Cosmos 2154 Rocket 4.4 19:22:28 10° N 19:28:32 44° ENE 19:34:32 10° SE
IRIDIUM 114 4.3 19:23:24 10° N 19:28:39 76° E 19:33:52 10° S
SL-4 R/B 1.9 19:27:45 10° SW 19:30:59 42° SE 19:33:43 14° ENE
Nadezhda 1 Rocket 4.3 19:25:09 10° SSE 19:31:10 45° E 19:37:10 10° NNE
SeaSat 1 3.8 19:26:45 10° NNE 19:31:26 44° NW 19:36:04 10° SW
Aureole 3 4.2 19:27:10 10° SSW 19:31:46 79° W 19:37:45 10° N
Cosmos 1726 Rocket 4.0 19:29:28 10° SSE 19:33:34 40° E 19:37:43 10° NNE
Cosmos 1340 Rocket 3.9 19:32:48 14° SE 19:35:21 25° E 19:38:40 10° NE
ATLAS 5 CENTAUR R/B 2.6 19:33:31 10° SSE 19:36:40 21° ESE 19:40:02 10° ENE
IRIDIUM 103 4.3 19:32:35 10° N 19:37:50 89° W 19:43:03 10° S
Cosmos 1825 Rocket 3.5 19:35:36 10° N 19:40:00 76° E 19:44:22 10° SSE
Cosmos 1328 4.0 19:36:06 10° N 19:40:02 52° ENE 19:43:15 15° SSE
Cosmos 1703 3.3 19:41:31 10° N 19:45:27 62° E 19:48:40 15° SSE
SL-8 R/B 4.4 19:41:22 10° WNW 19:45:55 46° SSW 19:49:09 18° SE
Cosmos 614 Rocket 4.1 19:42:53 10° S 19:47:56 51° ESE 19:52:58 10° NNE
Cosmos 1943 Rocket 3.6 19:44:42 10° NW 19:49:46 37° WSW 19:54:51 10° S
Cosmos 1300 4.3 19:50:48 18° ENE 19:50:48 18° ENE 19:52:56 10° NE
Abrixas rocket 2.5 19:47:59 10° WNW 19:50:54 53° N 19:52:19 25° ENE
SPOT 3 Rocket 3.5 19:45:49 10° SSE 19:51:01 77° ENE 19:56:15 10° NNW
Cosmos 2369 Rocket 3.1 19:46:21 10° NW 19:51:48 48° WSW 19:57:11 10° S
Cosmos 1758 Rocket 3.9 19:48:28 10° NNW 19:52:47 67° W 19:57:03 10° S
Cosmos 2074 Rocket 4.1 19:46:42 10° N 19:53:00 81° W 19:59:18 10° S
COSMOS 2455 3.6 19:47:35 10° NNW 19:53:14 39° NE 19:56:39 21° ESE
SL-24 R/B 3.7 19:50:02 10° NNE 19:54:14 70° E 19:58:00 10° S
Cosmos 1437 3.5 19:52:14 10° NNW 19:55:11 48° W 19:58:05 10° S
Cosmos 921 Rocket 3.8 19:52:04 10° N 19:55:52 33° ENE 19:57:11 26° E
CZ-2C R/B 3.7 19:51:23 10° NNE 19:56:08 76° ESE 20:00:45 10° S
Cosmos 1953 3.7 19:53:53 10° SSW 19:57:39 41° WNW 20:01:27 10° N
Cosmos 407 Rocket 3.5 19:54:17 10° S 19:59:17 53° ESE 20:04:16 10° NNE
Cosmos 2228 2.9 19:55:34 10° S 19:59:51 88° ESE 20:04:13 10° N
Cosmos 1953 Rocket 3.5 19:55:53 10° N 20:00:23 83° E 20:04:01 16° S
Cosmos 1606 Rocket 3.6 19:58:03 10° S 20:02:29 82° W 20:06:58 10° N
Cosmos 1908 3.1 19:59:12 10° S 20:03:03 82° E 20:06:57 10° N
Cosmos 1818 3.7 20:01:44 10° SW 20:07:11 80° NW 20:12:40 10° NE
ERS-1 Rocket 4.4 20:07:40 19° ENE 20:08:41 20° ENE 20:12:19 10° NNE
Cosmos 1610 Rocket 4.4 20:02:50 10° N 20:09:04 89° ENE 20:14:59 11° S
SL-08 RB Rocket 4.4 20:06:43 10° S 20:11:09 54° W 20:15:41 10° NNW
Meteor 1-11 4.2 20:09:23 10° N 20:15:12 90° NNW 20:19:34 18° S
Cosmos 1943 3.9 20:11:05 10° SW 20:16:39 57° WNW 20:22:16 10° NNE
MetOp-B 4.4 20:15:08 31° SE 20:17:23 52° ENE 20:22:35 10° N
APEX 4.3 20:11:29 10° NNW 20:18:11 88° ENE 20:21:10 30° SSE
Cosmos 1461 3.2 20:13:54 10° NNW 20:18:24 63° NE 20:19:51 40° ESE
CZ-2C R/B 4.5 20:14:20 10° SSW 20:18:46 33° W 20:23:05 10° NNW
Cosmos 1954 Rocket 4.3 20:21:02 34° SE 20:22:27 42° ESE 20:27:21 10° NE
SAR-Lupe-2 4.1 20:23:52 10° NNE 20:26:39 43° ENE 20:26:39 43° ENE
H-2A R/B 4.0 20:23:49 10° SSW 20:28:11 27° W 20:32:30 10° NW
Cosmos 1295 Rocket 4.5 20:23:22 10° N 20:29:42 87° W 20:34:10 21° S
Cosmos 1023 Rocket 4.3 20:25:56 10° SSW 20:31:06 76° ESE 20:36:16 10° NNE
CZ-4C R/B 4.4 20:26:33 10° NNW 20:31:41 23° NNE 20:37:07 11° ENE
STARLINK-1228 3.8 20:30:06 10° NW 20:32:28 41° N 20:32:28 41° N
Cosmos 1076 Rocket 4.4 20:31:36 10° N 20:35:03 33° ENE 20:35:03 33° ENE
Resurs 1-3 4.5 20:33:02 19° SSW 20:35:53 47° W 20:40:09 10° NNW
SPOT 5 4.0 20:36:47 24° NE 20:36:47 24° NE 20:39:52 10° N
CZ-2C R/B 2.7 20:33:50 10° N 20:39:00 74° WNW 20:44:10 10° SSW
STARLINK-60 4.2 20:38:36 10° WSW 20:40:39 35° WSW 20:40:39 35° WSW
NOSS 3-4 (A) 4.0 20:35:33 10° NW 20:42:33 70° SW 20:46:22 32° SSE
NOSS 3-4 (C) 4.0 20:35:40 10° NW 20:42:39 71° SW 20:46:27 32° SSE
Aureole 1 Rocket 4.4 20:35:38 10° SSW 20:43:18 71° WNW 20:49:20 10° NNE
Cosmos 2341 Rocket 4.0 20:37:02 10° N 20:43:27 88° E 20:46:40 32° S
STARLINK-1233 4.1 20:40:51 10° NW 20:43:20 39° N 20:43:20 39° N
STARLINK-1212 4.1 20:41:18 10° NW 20:43:45 38° NNW 20:43:45 38° NNW
STARLINK-1105 4.1 20:41:45 10° NW 20:44:12 39° NNW 20:44:12 39° NNW
Cosmos 2058 3.8 20:41:11 10° N 20:44:18 36° NE 20:44:18 36° NE
STARLINK-1206 4.2 20:42:15 10° NW 20:44:37 38° NNW 20:44:37 38° NNW
STARLINK-1247 4.2 20:42:42 10° NW 20:45:03 37° NNW 20:45:03 37° NNW
STARLINK-1227 4.2 20:43:05 10° NW 20:45:29 38° NNW 20:45:29 38° NNW
STARLINK-1218 4.2 20:43:36 10° NW 20:45:55 37° NNW 20:45:55 37° NNW
STARLINK-1226 4.2 20:44:02 10° NW 20:46:21 37° NNW 20:46:21 37° NNW
STARLINK-1254 4.2 20:44:26 10° NW 20:46:47 38° NNW 20:46:47 38° NNW
STARLINK-1215 4.3 20:44:57 10° NW 20:47:13 37° NNW 20:47:13 37° NNW
STARLINK-1231 4.3 20:45:24 10° NW 20:47:39 36° NNW 20:47:39 36° NNW
STARLINK-1232 4.3 20:46:17 10° NW 20:48:31 36° NNW 20:48:31 36° NNW
Cosmos 1763 Rocket 4.4 20:44:39 10° N 20:49:21 33° ENE 20:49:35 33° ENE
STARLINK-1217 4.3 20:46:44 10° NW 20:48:57 36° NNW 20:48:57 36° NNW
STARLINK-1208 4.3 20:47:09 10° NW 20:49:24 37° NNW 20:49:24 37° NNW
STARLINK-1229 4.4 20:47:38 10° NW 20:49:48 35° NNW 20:49:48 35° NNW
STARLINK-1234 4.4 20:47:53 10° NW 20:49:52 35° NW 20:49:52 35° NW
STARLINK-1271 4.4 20:48:05 10° NW 20:50:15 35° NNW 20:50:15 35° NNW
STARLINK-1216 4.5 20:47:36 10° NW 20:51:33 40° NNE 20:52:02 38° NE
STARLINK-1270 4.4 20:48:33 10° NW 20:50:42 35° NNW 20:50:42 35° NNW
STARLINK-1154 4.4 20:48:59 10° NW 20:51:06 35° NNW 20:51:06 35° NNW
STARLINK-1197 4.5 20:49:53 10° NW 20:51:59 34° NNW 20:51:59 34° NNW
STARLINK-1189 4.5 20:50:20 10° NW 20:52:25 34° NNW 20:52:25 34° NNW
Terra 3.0 20:55:02 28° NE 20:55:02 28° NE 20:58:36 10° N
STARLINK-1235 4.5 20:51:52 10° NW 20:53:55 35° NW 20:53:55 35° NW
STARLINK-1187 4.5 20:52:17 10° NW 20:54:21 35° NW 20:54:21 35° NW
STARLINK-1237 4.4 20:52:34 10° NW 20:56:32 42° NNE 20:56:48 41° NNE
RESURS DK-1 4.4 20:53:57 10° N 20:56:27 18° NE 20:56:27 18° NE
Cosmos 2058 Rocket 4.2 20:53:47 10° SSW 20:58:04 43° WNW 21:02:24 10° N
Cosmos 2218 Rocket 3.9 20:54:44 10° N 21:00:58 76° E 21:02:26 54° SSE
Resurs 01 Rocket 2.8 20:59:16 27° SW 21:00:59 37° W 21:05:06 10° NNW
STARLINK-1202 4.4 20:57:33 10° NW 21:01:31 43° NNE 21:01:35 43° NNE
Cosmos 1980 Rocket 4.1 20:58:30 10° N 21:01:56 16° NE 21:03:11 15° NE
Cosmos 1892 4.0 20:59:31 10° N 21:01:53 32° NNE 21:01:53 32° NNE
STARLINK-1203 4.4 21:01:57 10° NW 21:05:52 47° NNE 21:05:52 47° NNE
CARTOSAT-1 4.3 21:10:07 43° NNE 21:10:07 43° NNE 21:13:21 10° N
USA 234 3.1 21:02:46 10° NE 21:09:20 87° SE 21:15:54 10° SW
USA 245 4.4 21:08:37 52° S 21:10:02 75° WSW 21:16:19 10° NNW
Cosmos 1656 4.2 21:04:57 10° NNW 21:10:22 43° NE 21:10:37 42° ENE
SL-4 R/B 3.3 21:07:14 10° W 21:09:22 32° WNW 21:09:22 32° WNW
STARLINK-1246 4.5 21:07:30 10° NW 21:11:09 45° N 21:11:09 45° N
Iridium 4 Rocket 3.5 21:07:25 10° N 21:10:42 52° N 21:10:42 52° N
Cosmos 1140 Rocket 4.2 21:07:33 10° SW 21:12:36 51° WNW 21:17:39 10° NNE
Spot 2 Rocket 3.8 21:11:43 53° SSW 21:12:39 63° WSW 21:17:44 10° NNW
ATLAS 2AS CENTAUR R/B 3.6 21:07:44 10° NW 21:14:41 43° WSW 21:17:26 30° SSW
Cosmos 2181 Rocket 4.0 21:12:14 36° SSW 21:14:58 80° W 21:21:12 10° N
ATLAS 5 CENTAUR R/B 2.4 21:16:43 10° WSW 21:20:50 50° NW 21:25:29 10° NNE
SL-8 Rocket 4.2 21:15:09 10° NNW 21:21:25 67° W 21:23:20 45° SSW
Cosmos 841 Rocket 4.5 21:19:56 10° N 21:24:13 36° NE 21:24:13 36° NE
Cosmos 864 Rocket 4.4 21:18:42 10° N 21:24:56 81° W 21:25:57 64° SSW
Cosmos 1300 4.3 21:25:42 33° WNW 21:25:42 33° WNW 21:29:08 10° N
IGS 5A 4.4 21:29:44 45° WNW 21:29:44 45° WNW 21:33:02 10° NNW
In-Cosmos 22 Rocket 4.5 21:25:36 10° NNW 21:31:23 65° W 21:32:08 59° SW
Cosmos 1812 Rocket 4.5 21:33:49 46° NNW 21:33:49 46° NNW 21:37:05 10° N
Cosmos 2366 rocket 4.1 21:26:57 10° NNW 21:33:03 68° W 21:34:07 57° SW
Meteor 2-12 Rocket 4.3 21:27:09 10° N 21:33:17 85° W 21:33:43 78° SSW
Mayak 1.5 21:30:33 10° NE 21:30:35 10° NE 21:30:35 10° NE
Cosmos 468 Rocket 4.1 21:29:15 10° NNW 21:33:48 69° NNW 21:33:48 69° NNW
COSMOS 2455 3.5 21:33:33 10° NW 21:39:15 44° WSW 21:39:49 43° SW
Nadezhda 3 Rocket 4.3 21:43:48 54° NE 21:43:48 54° NE 21:49:02 10° NNE
COSMOS 2406 4.4 21:45:30 31° NE 21:45:30 31° NE 21:48:28 10° NNE
ERS-1 Rocket 3.5 21:47:39 56° WNW 21:47:39 56° WNW 21:52:01 10° NNW
ATLAS CENTAUR R/B 3.7 21:46:02 10° NNW 21:47:36 18° N 21:47:36 18° N
SPOT 1/Viking Rocket 4.5 21:55:08 41° W 21:55:08 41° W 21:59:59 10° NNW
Cosmos 2369 4.3 22:01:18 10° NNW 22:05:45 51° N 22:05:45 51° N
Meteor 2-10 Rocket 4.4 22:12:36 46° N 22:12:36 46° N 22:16:26 10° N
Cosmos 1821 Rocket 4.2 22:08:46 10° N 22:14:33 72° NW 22:14:33 72° NW
Cosmos 1697 Rocket 3.4 22:12:56 10° NNW 22:17:11 51° NNW 22:17:11 51° NNW
CZ-4C R/B 3.2 22:14:53 10° NW 22:21:46 54° NE 22:22:18 53° ENE
Cosmos 1934 Rocket 4.4 22:17:20 10° N 22:22:23 58° NNE 22:22:23 58° NNE
Terra 3.7 22:33:54 27° NW 22:33:54 27° NW 22:36:32 10° NNW
SL-16 R/B 4.0 22:28:18 10° N 22:32:21 23° NE 22:32:21 23° NE
Cosmos 2322 Rocket 4.0 22:38:13 10° N 22:42:08 22° NE 22:42:08 22° NE
Cosmos 1980 Rocket 3.3 22:41:19 10° NNW 22:44:56 41° NNW 22:44:56 41° NNW
USA 234 4.2 22:45:55 10° NE 22:52:02 44° NNW 22:58:10 10° W
Mayak 1.6 23:06:10 10° N 23:07:09 15° NNW 23:07:09 15° NNW
Cosmos 2082 Rocket 3.7 23:15:18 31° NNE 23:15:18 31° NNE 23:18:10 10° NNE
Cosmos 2344 4.3 23:07:21 10° NW 23:17:00 90° NE 23:18:38 72° SE
Cosmos 1833 Rocket 4.2 23:29:29 33° NNW 23:29:29 33° NNW 23:33:15 10° NNE
